Location: Marion Hill
(40.7303°N, 80.2959°W)
Time: 18:38:26
(UTC+00:00)

Cosmos 1076 Rocket - Pass Details

Date: 29 October 2020
Orbit: 589 x 613 km, 82.5° (Epoch: 24 November)

Event Time Altitude Azimuth Distance (km) Brightness Sun altitude
Rises 23:18:46 0° 3° (N) 2,831 6.8 -11.6°
Reaches altitude 10° 23:21:14 10° 16° (NNE) 1,926 5.9 -12.0°
Maximum altitude 23:24:54 28° 76° (ENE) 1,134 4.3 -12.7°
Drops below altitude 10° 23:28:33 10° 135° (SE) 1,921 5.7 -13.4°
Sets 23:31:00 0° 147° (SSE) 2,821 6.7 -13.9°
